This is the latest recevied weather packets stored in our database for station/object KJ6BBX. If no packets are shown the sender has not sent any weather packets the latest 10 day(s).
| Time | Temp. | Humidity | Pressure | Rain* | Wind** | Luminosity | Snow |
|---|---|---|---|---|---|---|---|
| 1777896314 | 11.67° C | 91% | 1006.7 hPa | 0 mm | - | 0 W/m² | - |
| 1777895414 | 11.67° C | 91% | 1006.3 hPa | 0 mm | - | 0 W/m² | - |
| 1777894514 | 10.56° C | 91% | 1006.5 hPa | 0 mm | - | 0 W/m² | - |
| 1777893614 | 10.56° C | 91% | 1006.4 hPa | 0 mm | - | 0 W/m² | - |
| 1777892714 | 10.56° C | 91% | 1006.1 hPa | 0 mm | - | 0 W/m² | - |
| 1777891814 | 10.56° C | 90% | 1006 hPa | 0 mm | - | 0 W/m² | - |
| 1777890915 | 11.11° C | 89% | 1005.9 hPa | 0 mm | - | 0 W/m² | - |
| 1777890015 | 11.11° C | 89% | 1006 hPa | 0 mm | - | 0 W/m² | - |
| 1777889115 | 11.67° C | 88% | 1006.2 hPa | 0 mm | - | 0 W/m² | - |
| 1777888214 | 12.22° C | 87% | 1006.3 hPa | 0 mm | - | 0 W/m² | - |
| 1777887314 | 12.78° C | 87% | 1006.5 hPa | 0 mm | - | 0 W/m² | - |
| 1777886415 | 12.78° C | 86% | 1006.6 hPa | 0 mm | - | 0 W/m² | - |
| 1777885515 | 13.33° C | 86% | 1006.9 hPa | 0 mm | - | 0 W/m² | - |
| 1777884614 | 13.33° C | 85% | 1006.8 hPa | 0 mm | - | 0 W/m² | - |
| 1777883714 | 13.33° C | 85% | 1007.2 hPa | 0 mm | - | 0 W/m² | - |
| 1777882814 | 13.33° C | 84% | 1007.4 hPa | 0 mm | - | 0 W/m² | - |
| 1777881914 | 13.33° C | 84% | 1007.2 hPa | 0 mm | - | 0 W/m² | - |
| 1777881014 | 13.33° C | 84% | 1007.6 hPa | 0 mm | - | 0 W/m² | - |
| 1777880114 | 13.33° C | 84% | 1007.8 hPa | 0 mm | - | 0 W/m² | - |
| 1777879214 | 12.78° C | 84% | 1007.8 hPa | 0 mm | - | 0 W/m² | - |
| 1777878314 | 12.78° C | 84% | 1007.4 hPa | 0 mm | - | 0 W/m² | - |
| 1777877414 | 12.22° C | 85% | 1007.2 hPa | 0.25 mm | - | 0 W/m² | - |
| 1777876514 | 12.22° C | 85% | 1006.8 hPa | 0.25 mm | - | 0 W/m² | - |
| 1777875615 | 11.67° C | 84% | 1007.3 hPa | 0.25 mm | - | 0 W/m² | - |
| 1777874714 | 12.22° C | 83% | 1006.8 hPa | 0.25 mm | - | 0 W/m² | - |
* Rain since midnight (hover to see other rain measurements)
** Current wind speed in m/s (hover to see current wind gust speed)